Powrót do katalogu

STARLINK-37415

AktywnyŁącznośćVLEO
NORAD 100035·PAYLOAD·🇺🇸 United States

Wystrzelony Jul 14, 2026 z Cape Canaveral Space Force Station

Loading…

Następne Przeloty (najbliższe 24 godziny)

TLE

ŚwieżeSource: Space-Track

Epoka: Sep 14, 2026, 17:57 UTC

1 A0035U 26161H   26257.74847082  .00024752  00000-0  74152-3 0  9998
2 A0035  53.1599  24.8837 0001157  85.2476 274.8659 15.34389704  9723

Śledź STARLINK-37415 w czasie rzeczywistym z AllMySat

Download on the App Store